KK4KTV-13 Weather Reports


Display with metric or nautical units.
time (UTC)temp
F
wind
direction
speed
MPH
gust
MPH
rain 1hr
in
rain 24hr
in
rain mn
in
humidity
%
barometer
mb
20260901034208 72 255 0.0 0.0 0.00 0.00 0.00 98 1018.8
20260901033708 72 255 0.0 0.0 0.00 0.00 0.00 98 1018.7
20260901033202 72 255 0.0 0.0 0.00 0.00 0.00 99 1019.0
20260901032701 71 257 0.0 0.0 0.00 0.00 0.00 99 1019.0
20260901032155 71 261 0.0 1.0 0.00 0.00 0.00 98 1018.8
20260901031650 71 257 0.0 0.0 0.00 0.00 0.00 98 1019.0
20260901031146 71 257 0.0 0.0 0.00 0.00 0.00 98 1018.7
20260901030640 71 257 0.0 0.0 0.00 0.00 0.00 99 1018.9
20260901030135 71 257 0.0 0.0 0.00 0.00 0.00 98 1018.9
20260901025629 71 257 0.0 0.0 0.00 0.00 0.00 98 1018.8
20260901025124 72 257 0.0 0.0 0.00 0.00 0.00 98 1018.7
20260901024619 71 257 0.0 0.0 0.00 0.00 0.00 98 1018.6
20260901024118 72 257 0.0 0.0 0.00 0.00 0.00 98 1018.7
20260901023617 72 257 0.0 0.0 0.00 0.00 0.00 98 1018.7
20260901023112 72 257 0.0 0.0 0.00 0.00 0.00 97 1018.8
20260901022607 72 257 0.0 0.0 0.00 0.00 0.00 97 1018.7
20260901022102 72 257 0.0 0.0 0.00 0.00 0.00 97 1018.5
20260901021558 72 257 0.0 0.0 0.00 0.00 0.00 97 1018.7
20260901021053 72 257 0.0 0.0 0.00 0.00 0.00 96 1018.5
20260901020548 73 257 0.0 0.0 0.00 0.00 0.00 97 1018.5
20260901020043 73 256 0.0 0.0 0.00 0.00 0.00 97 1018.4
20260901015538 73 256 0.0 0.0 0.00 0.00 0.00 97 1018.5
20260901015033 73 256 0.0 0.0 0.00 0.00 0.00 96 1018.5
20260901014529 73 256 0.0 0.0 0.00 0.00 0.00 97 1018.4
20260901014024 73 256 0.0 0.0 0.00 0.00 0.00 96 1018.2
20260901013520 74 256 0.0 0.0 0.00 0.00 0.00 96 1018.4
20260901013016 74 256 0.0 0.0 0.00 0.00 0.00 96 1018.1
20260901012515 74 256 0.0 0.0 0.00 0.00 0.00 95 1017.9
20260901012011 74 256 0.0 0.0 0.00 0.00 0.00 95 1017.8
20260901011507 75 256 0.0 0.0 0.00 0.00 0.00 94 1017.8
20260901011004 75 256 0.0 0.0 0.00 0.00 0.00 95 1017.8
20260901010501 75 256 0.0 0.0 0.00 0.00 0.00 93 1017.7
20260901005959 75 256 0.0 0.0 0.00 0.00 0.00 92 1017.6
20260901005454 76 256 0.0 0.0 0.00 0.00 0.00 93 1017.3
20260901004949 76 256 0.0 0.0 0.00 0.00 0.00 91 1017.5
20260901004448 77 256 0.0 0.0 0.00 0.00 0.00 91 1017.4
20260901003943 77 256 0.0 0.0 0.00 0.00 0.00 91 1017.5
20260901003438 78 256 0.0 0.0 0.00 0.00 0.00 89 1017.6
20260901002937 78 256 0.0 0.0 0.00 0.00 0.00 90 1017.7
20260901002436 79 256 0.0 0.0 0.00 0.00 0.00 89 1017.5
20260901001930 79 256 0.0 0.0 0.00 0.00 0.00 86 1017.5
20260901001426 80 256 0.0 0.0 0.00 0.00 0.00 86 1017.3
20260901000921 81 256 0.0 0.0 0.00 0.00 0.00 86 1017.4
20260901000416 83 256 0.0 0.0 0.00 0.00 0.00 83 1017.3
20260831235915 85 256 0.0 0.0 0.00 0.00 0.00 78 1017.4
20260831235411 86 256 0.0 0.0 0.00 0.00 0.00 76 1017.5
20260831234906 87 256 0.0 0.0 0.00 0.00 0.00 74 1017.4
20260831234400 89 256 0.0 0.0 0.00 0.00 0.00 69 1017.3
20260831233856 90 256 0.0 0.0 0.00 0.00 0.00 70 1017.4
20260831233351 90 256 0.0 0.0 0.00 0.00 0.00 68 1017.6
20260831232846 89 256 0.0 0.0 0.00 0.00 0.00 69 1017.7
20260831232342 89 256 0.0 0.0 0.00 0.00 0.00 68 1017.7
20260831231838 91 256 0.0 0.0 0.00 0.00 0.00 71 1017.5
20260831231334 90 256 0.0 0.0 0.00 0.00 0.00 64 1017.6
20260831230829 91 255 0.0 0.0 0.00 0.00 0.00 61 1017.6
20260831230324 95 255 0.0 1.0 0.00 0.00 0.00 55 1017.6
20260831225823 96 255 0.0 0.0 0.00 0.00 0.00 59 1017.6
20260831225318 95 255 0.0 0.0 0.00 0.00 0.00 54 1017.7
20260831224814 94 256 0.0 0.0 0.00 0.00 0.00 54 1017.6
20260831224308 94 256 0.0 0.0 0.00 0.00 0.00 49 1017.7
20260831223803 93 263 1.0 1.0 0.00 0.00 0.00 50 1017.7
20260831223300 92 284 1.0 2.0 0.00 0.00 0.00 52 1017.8
20260831222756 93 273 0.0 1.0 0.00 0.00 0.00 59 1017.7
20260831222252 93 299 2.0 2.0 0.00 0.00 0.00 55 1017.9
20260831221748 94 294 0.0 1.0 0.00 0.00 0.00 56 1017.9
20260831221243 93 295 0.0 0.0 0.00 0.00 0.00 53 1017.9
20260831220743 93 282 1.0 2.0 0.00 0.00 0.00 52 1018.1
20260831220238 94 306 0.0 1.0 0.00 0.00 0.00 54 1017.8
20260831215738 92 307 0.0 1.0 0.00 0.00 0.00 60 1017.9
20260831215235 93 328 2.0 3.0 0.00 0.00 0.00 54 1017.9
20260831214731 95 293 2.0 2.0 0.00 0.00 0.00 50 1018.2
20260831214228 98 290 0.0 0.0 0.00 0.00 0.00 44 1017.9
20260831213723 97 250 0.0 0.0 0.00 0.00 0.00 45 1018.2
20260831213220 93 249 0.0 1.0 0.00 0.00 0.00 53 1018.4
20260831212714 93 323 0.0 1.0 0.00 0.00 0.00 49 1018.2
20260831212211 94 320 0.0 0.0 0.00 0.00 0.00 52 1018.4
20260831211709 94 274 0.0 0.0 0.00 0.00 0.00 46 1018.4
20260831211206 92 274 0.0 0.0 0.00 0.00 0.00 55 1018.4
20260831210705 90 273 0.0 0.0 0.00 0.00 0.00 59 1018.5
20260831210202 90 297 0.0 0.0 0.00 0.00 0.00 63 1018.4
20260831205700 91 297 1.0 1.0 0.00 0.00 0.00 56 1018.5
20260831205157 93 299 0.0 2.0 0.00 0.00 0.00 48 1018.4
20260831204656 93 319 0.0 2.0 0.00 0.00 0.00 57 1018.7
20260831204155 93 301 0.0 2.0 0.00 0.00 0.00 59 1018.7
20260831203650 92 290 0.0 0.0 0.00 0.00 0.00 52 1018.4
20260831203149 92 292 0.0 2.0 0.00 0.00 0.00 49 1018.6
20260831202648 92 185 2.0 3.0 0.00 0.00 0.00 49 1018.7
20260831202143 93 176 3.0 4.0 0.00 0.00 0.00 48 1018.7
20260831201636 93 250 0.0 2.0 0.00 0.00 0.00 56 1019.0
20260831201131 93 261 2.0 3.0 0.00 0.00 0.00 49 1018.8
20260831200627 92 223 2.0 2.0 0.00 0.00 0.00 51 1018.6
20260831200122 90 254 1.0 1.0 0.00 0.00 0.00 60 1018.8
20260831195618 91 209 2.0 2.0 0.00 0.00 0.00 53 1018.8
20260831195113 92 236 4.0 6.0 0.00 0.00 0.00 53 1018.8
20260831194607 95 196 2.0 4.0 0.00 0.00 0.00 48 1019.0
20260831194102 93 282 0.0 2.0 0.00 0.00 0.00 61 1019.0
20260831193558 93 241 2.0 4.0 0.00 0.00 0.00 50 1019.1
20260831193057 93 257 0.0 0.0 0.00 0.00 0.00 47 1019.2
20260831192553 92 302 0.0 1.0 0.00 0.00 0.00 54 1019.1
20260831192048 91 313 1.0 2.0 0.00 0.00 0.00 57 1019.2
20260831191544 91 279 3.0 4.0 0.00 0.00 0.00 62 1019.2
20260831191039 91 291 0.0 1.0 0.00 0.00 0.00 56 1019.2
20260831190535 91 300 1.0 2.0 0.00 0.00 0.00 58 1019.2
20260831190033 93 299 1.0 3.0 0.00 0.00 0.00 53 1019.2
20260831185530 91 258 1.0 2.0 0.00 0.00 0.00 50 1019.4
20260831185025 93 257 2.0 3.0 0.00 0.00 0.00 54 1019.4
20260831184524 92 283 0.0 4.0 0.00 0.00 0.00 60 1019.5
20260831184020 91 299 2.0 2.0 0.00 0.00 0.00 60 1019.7
20260831183519 90 269 5.0 8.0 0.00 0.00 0.00 60 1019.5
20260831183018 89 297 1.0 2.0 0.00 0.00 0.00 63 1019.5
20260831182513 89 289 1.0 4.0 0.00 0.00 0.00 63 1019.8
20260831182009 91 277 1.0 2.0 0.00 0.00 0.00 57 1019.9
20260831181504 90 315 0.0 1.0 0.00 0.00 0.00 55 1019.8
20260831180959 88 283 0.0 1.0 0.00 0.00 0.00 62 1019.7
20260831180458 89 252 1.0 2.0 0.00 0.00 0.00 60 1019.8
20260831175958 91 282 2.0 2.0 0.00 0.00 0.00 62 1020.0
20260831175454 90 290 2.0 3.0 0.00 0.00 0.00 63 1019.9
20260831174950 89 318 1.0 3.0 0.00 0.00 0.00 56 1019.9
20260831174440 87 264 2.0 2.0 0.00 0.00 0.00 63 1020.0
20260831173939 88 322 2.0 2.0 0.00 0.00 0.00 67 1020.0
20260831173437 89 283 2.0 4.0 0.00 0.00 0.00 67 1020.2
20260831172934 86 286 1.0 2.0 0.00 0.00 0.00 68 1020.3
20260831172429 87 279 1.0 2.0 0.00 0.00 0.00 65 1020.2
20260831171924 88 309 2.0 3.0 0.00 0.00 0.00 65 1020.2
20260831171420 88 330 4.0 4.0 0.00 0.00 0.00 66 1020.3
20260831170917 89 287 2.0 6.0 0.00 0.00 0.00 68 1020.4
20260831170413 90 280 2.0 3.0 0.00 0.00 0.00 62 1020.3
20260831165909 89 287 1.0 4.0 0.00 0.00 0.00 62 1020.3
20260831165405 90 267 0.0 0.0 0.00 0.00 0.00 60 1020.4
20260831164901 90 222 2.0 4.0 0.00 0.00 0.00 63 1020.6
20260831164357 89 273 0.0 0.0 0.00 0.00 0.00 60 1020.7
20260831163852 89 198 1.0 3.0 0.00 0.00 0.00 65 1020.7
20260831163348 89 267 2.0 4.0 0.00 0.00 0.00 62 1020.6
20260831162846 88 302 5.0 7.0 0.00 0.00 0.00 65 1020.7
20260831162342 88 241 3.0 6.0 0.00 0.00 0.00 67 1020.6
20260831161840 88 286 1.0 3.0 0.00 0.00 0.00 65 1020.7
20260831161337 88 258 2.0 4.0 0.00 0.00 0.00 64 1020.7
20260831160831 88 251 1.0 4.0 0.00 0.00 0.00 66 1020.8
20260831160326 89 273 0.0 0.0 0.00 0.00 0.00 64 1020.7
20260831155821 88 283 0.0 0.0 0.00 0.00 0.00 65 1020.8
20260831155320 89 103 0.0 0.0 0.00 0.00 0.00 62 1020.7
20260831154816 88 293 0.0 1.0 0.00 0.00 0.00 67 1020.8
20260831154313 88 207 2.0 3.0 0.00 0.00 0.00 66 1020.9
20260831153811 88 228 0.0 0.0 0.00 0.00 0.00 65 1020.7
20260831153307 87 246 0.0 0.0 0.00 0.00 0.00 68 1020.9
20260831152803 88 250 0.0 0.0 0.00 0.00 0.00 68 1020.8
20260831152258 87 260 1.0 2.0 0.00 0.00 0.00 65 1020.9
20260831151753 87 241 0.0 0.0 0.00 0.00 0.00 68 1020.8
20260831151252 86 246 0.0 0.0 0.00 0.00 0.00 70 1020.8
20260831150748 87 258 0.0 0.0 0.00 0.00 0.00 72 1020.9
20260831150243 86 251 0.0 0.0 0.00 0.00 0.00 69 1021.0
20260831145742 86 169 2.0 3.0 0.00 0.00 0.00 69 1020.8
20260831145238 86 152 3.0 6.0 0.00 0.00 0.00 69 1020.8
20260831144734 85 215 2.0 4.0 0.00 0.00 0.00 67 1020.8
20260831144230 85 209 3.0 3.0 0.00 0.00 0.00 70 1020.7
20260831143730 84 240 2.0 4.0 0.00 0.00 0.00 70 1020.6
20260831143225 83 286 1.0 3.0 0.00 0.00 0.00 75 1020.6
20260831142721 82 236 2.0 3.0 0.00 0.00 0.00 74 1020.6
20260831142216 83 269 1.0 3.0 0.00 0.00 0.00 75 1020.3
20260831141715 83 287 2.0 2.0 0.00 0.00 0.00 74 1020.5
20260831141210 82 265 2.0 2.0 0.00 0.00 0.00 74 1020.6
20260831140710 82 306 1.0 2.0 0.00 0.00 0.00 75 1020.4
20260831140205 82 285 0.0 2.0 0.00 0.00 0.00 79 1020.4
20260831135702 84 218 1.0 1.0 0.00 0.00 0.00 74 1020.5
20260831135158 83 319 0.0 1.0 0.00 0.00 0.00 74 1020.5
20260831134654 83 358 0.0 0.0 0.00 0.00 0.00 75 1020.7
20260831134150 81 5 0.0 0.0 0.00 0.00 0.00 77 1020.7
20260831133649 79 15 0.0 0.0 0.00 0.00 0.00 79 1020.6
20260831133143 79 15 0.0 1.0 0.00 0.00 0.00 82 1020.6
20260831132639 78 15 0.0 0.0 0.00 0.00 0.00 81 1020.7
20260831132138 78 15 0.0 1.0 0.00 0.00 0.00 83 1020.7
20260831131628 77 15 0.0 1.0 0.00 0.00 0.00 83 1020.7
20260831131125 78 19 0.0 0.0 0.00 0.00 0.00 83 1020.8
20260831130620 77 23 0.0 0.0 0.00 0.00 0.00 85 1020.7
20260831130115 77 23 0.0 0.0 0.00 0.00 0.00 85 1020.5
20260831125613 75 34 0.0 0.0 0.00 0.00 0.00 88 1020.6
20260831125109 73 34 0.0 1.0 0.00 0.00 0.00 91 1020.4
20260831124605 72 30 1.0 1.0 0.00 0.00 0.00 93 1020.6
20260831124101 72 19 1.0 1.0 0.00 0.00 0.00 93 1020.5
20260831123601 73 21 0.0 0.0 0.00 0.00 0.00 91 1020.5
20260831123054 74 23 0.0 0.0 0.00 0.00 0.00 91 1020.4
20260831122548 73 22 0.0 0.0 0.00 0.00 0.00 90 1020.3
20260831122044 71 23 0.0 0.0 0.00 0.00 0.00 93 1020.3
20260831121539 70 23 0.0 0.0 0.00 0.00 0.00 98 1020.0
20260831121035 70 23 0.0 0.0 0.00 0.00 0.00 99 1020.3
20260831120534 69 23 0.0 0.0 0.00 0.00 0.00 99 1020.3
20260831120030 69 22 0.0 0.0 0.00 0.00 0.00 99 1020.3
20260831115526 68 23 0.0 0.0 0.00 0.00 0.00 99 1020.0
20260831115021 68 23 0.0 0.0 0.00 0.00 0.00 99 1019.8
20260831114520 67 23 0.0 0.0 0.00 0.00 0.00 99 1020.0
20260831114016 67 23 0.0 0.0 0.00 0.00 0.00 99 1020.0
20260831113514 67 23 0.0 0.0 0.00 0.00 0.00 99 1019.8
20260831113011 66 23 0.0 0.0 0.00 0.00 0.00 99 1019.9
20260831112509 66 23 0.0 0.0 0.00 0.00 0.00 99 1019.8
20260831112004 66 23 0.0 0.0 0.00 0.00 0.00 99 1019.8
20260831111501 65 23 0.0 0.0 0.00 0.00 0.00 99 1019.7
20260831110956 65 23 0.0 0.0 0.00 0.00 0.00 99 1019.5
20260831110451 66 23 0.0 0.0 0.00 0.00 0.00 99 1019.6
20260831105950 66 23 0.0 0.0 0.00 0.00 0.00 99 1019.4
20260831105446 66 23 0.0 0.0 0.00 0.00 0.00 99 1019.6
20260831104945 66 23 0.0 0.0 0.00 0.00 0.00 99 1019.4
20260831104442 66 23 0.0 0.0 0.00 0.00 0.00 99 1019.3
20260831103937 66 23 0.0 0.0 0.00 0.00 0.00 99 1019.3
20260831103432 66 23 0.0 0.0 0.00 0.00 0.00 99 1019.1
20260831102928 66 23 0.0 0.0 0.00 0.00 0.00 99 1019.2
20260831102428 66 23 0.0 0.0 0.00 0.00 0.00 99 1018.9
20260831101922 66 23 0.0 0.0 0.00 0.00 0.00 99 1019.1
20260831101418 66 23 0.0 0.0 0.00 0.00 0.00 99 1018.9
20260831100914 66 23 0.0 0.0 0.00 0.00 0.00 99 1018.8
20260831100410 67 23 0.0 0.0 0.00 0.00 0.00 99 1018.9
20260831095910 67 23 0.0 0.0 0.00 0.00 0.00 99 1018.9
20260831095409 66 23 0.0 0.0 0.00 0.00 0.00 99 1018.9
20260831094904 67 23 0.0 0.0 0.00 0.00 0.00 99 1018.9
20260831094400 66 23 0.0 0.0 0.00 0.00 0.00 99 1018.8
20260831093856 66 23 0.0 0.0 0.00 0.00 0.00 99 1018.8
20260831093350 66 23 0.0 0.0 0.00 0.00 0.00 99 1018.8
20260831092847 67 23 0.0 0.0 0.00 0.00 0.00 99 1019.0
20260831092342 67 23 0.0 0.0 0.00 0.00 0.00 99 1018.9
20260831091837 67 23 0.0 0.0 0.00 0.00 0.00 99 1018.8
20260831091333 67 23 0.0 0.0 0.00 0.00 0.00 99 1018.9
20260831090828 67 23 0.0 0.0 0.00 0.00 0.00 99 1018.8
20260831090324 67 23 0.0 0.0 0.00 0.00 0.00 99 1018.9
20260831085821 67 23 0.0 0.0 0.00 0.00 0.00 99 1018.9
20260831085315 67 23 0.0 0.0 0.00 0.00 0.00 99 1018.7
20260831084809 67 23 0.0 0.0 0.00 0.00 0.00 99 1018.8
20260831084305 68 23 0.0 0.0 0.00 0.00 0.00 99 1018.7
20260831083801 68 23 0.0 0.0 0.00 0.00 0.00 99 1018.8
20260831083257 68 23 0.0 0.0 0.00 0.00 0.00 99 1018.6
20260831082755 68 23 0.0 0.0 0.00 0.00 0.00 99 1018.9
20260831082245 68 23 0.0 0.0 0.00 0.00 0.00 99 1018.7
20260831081741 68 23 0.0 0.0 0.00 0.00 0.00 99 1018.6
20260831081236 68 23 0.0 0.0 0.00 0.00 0.00 99 1018.7
20260831080732 68 23 0.0 0.0 0.00 0.00 0.00 99 1018.8
20260831080232 68 23 0.0 0.0 0.00 0.00 0.00 99 1018.6
20260831075727 68 23 0.0 0.0 0.00 0.00 0.00 99 1018.5
20260831075223 68 23 0.0 0.0 0.00 0.00 0.00 99 1018.6
20260831074722 68 23 0.0 0.0 0.00 0.00 0.00 99 1018.8
20260831074216 69 25 0.0 0.0 0.00 0.00 0.00 99 1018.8
20260831073712 69 173 0.0 0.0 0.00 0.00 0.00 99 1018.7
20260831073211 69 173 0.0 0.0 0.00 0.00 0.00 99 1018.7
20260831072706 69 173 0.0 0.0 0.00 0.00 0.00 99 1018.8
20260831072203 69 173 0.0 0.0 0.00 0.00 0.00 99 1018.7
20260831071702 69 173 0.0 0.0 0.00 0.00 0.00 99 1018.7
20260831071156 69 172 0.0 0.0 0.00 0.00 0.00 99 1018.8
20260831070650 69 173 0.0 0.0 0.00 0.00 0.00 99 1018.8
20260831070145 69 172 0.0 0.0 0.00 0.00 0.00 99 1018.8
20260831065644 69 34 0.0 0.0 0.00 0.00 0.00 99 1018.9
20260831065138 69 34 0.0 0.0 0.00 0.00 0.00 99 1018.8
20260831064632 69 35 0.0 0.0 0.00 0.00 0.00 99 1018.7
20260831064128 69 35 0.0 0.0 0.00 0.00 0.00 99 1018.6
20260831063624 69 34 0.0 0.0 0.00 0.00 0.00 99 1018.6
20260831063118 70 35 0.0 0.0 0.00 0.00 0.00 99 1018.7
20260831062613 70 35 0.0 0.0 0.00 0.00 0.00 99 1018.7
20260831062112 70 30 0.0 0.0 0.00 0.00 0.00 99 1019.0
20260831061610 70 34 0.0 0.0 0.00 0.00 0.00 99 1018.9
20260831061107 69 34 0.0 0.0 0.00 0.00 0.00 99 1018.8
20260831060602 70 47 0.0 0.0 0.00 0.00 0.00 99 1018.8
20260831060056 70 47 0.0 0.0 0.00 0.00 0.00 99 1019.0
20260831055551 70 47 0.0 0.0 0.00 0.00 0.00 99 1018.9
20260831055047 70 47 0.0 0.0 0.00 0.00 0.00 99 1018.8
20260831054546 69 47 0.0 0.0 0.00 0.00 0.00 98 1019.0
20260831054046 70 47 0.0 0.0 0.00 0.00 0.00 98 1018.9
20260831053544 70 47 0.0 0.0 0.00 0.00 0.00 99 1019.0
20260831053039 70 48 0.0 0.0 0.00 0.00 0.00 99 1018.8
20260831052537 70 46 0.0 0.0 0.00 0.00 0.00 99 1018.7
20260831052032 70 46 0.0 0.0 0.00 0.00 0.00 99 1018.9
20260831051530 70 46 0.0 0.0 0.00 0.00 0.00 98 1018.8
20260831051029 71 46 0.0 0.0 0.00 0.00 0.00 99 1018.8
20260831050524 71 46 0.0 0.0 0.00 0.00 0.00 98 1018.9
20260831050022 71 46 0.0 0.0 0.00 0.00 0.00 98 1018.9
20260831045521 71 46 0.0 0.0 0.00 0.00 0.00 98 1019.0
20260831045017 71 46 0.0 0.0 0.00 0.00 0.00 98 1019.1
20260831044513 71 49 0.0 0.0 0.00 0.00 0.00 98 1018.9
20260831044008 72 49 0.0 0.0 0.00 0.00 0.00 97 1019.2
20260831043507 72 49 0.0 0.0 0.00 0.00 0.00 97 1018.9
20260831043003 72 50 0.0 0.0 0.00 0.00 0.00 97 1018.9
20260831042503 72 34 0.0 0.0 0.00 0.00 0.00 98 1019.0
20260831042003 72 28 0.0 1.0 0.00 0.00 0.00 98 1019.1
20260831041458 72 30 1.0 1.0 0.00 0.00 0.00 98 1019.0
20260831040957 72 8 0.0 0.0 0.00 0.00 0.00 98 1019.0
20260831040452 72 8 0.0 0.0 0.00 0.00 0.00 98 1019.0
20260831035949 72 8 0.0 0.0 0.00 0.00 0.00 98 1018.9
20260831035449 72 8 0.0 0.0 0.00 0.00 0.00 98 1018.9
20260831034944 72 8 0.0 0.0 0.00 0.00 0.00 98 1019.0